User: anonymous   Login
Location: Capelle
(50.3413°N, 1.9974°E)
Time: 10:34:00
(UTC+00:00)
Language:

IRS-P3 - Orbit

View from above orbital plane
View from above orbital plane
View from above satellite
View from above satellite

Ground track
Ground track

The orbit is defined by the following mean orbital elements,

1 23827U          26071.67475328 +.00000000 +00000-0 +96345-4 0 00004
2 23827  99.0377  92.5722 0002892 199.9282 160.1783 14.23703916    09
Epoch (UTC): 12 March 2026 16:11:38
Eccentricity: 0.0002892
inclination: 99.0377°
perigee height: 811 km
apogee height: 815 km
right ascension of ascending node: 92.5722°
argument of perigee: 199.9282°
revolutions per day: 14.23703916
mean anomaly at epoch: 160.1783°

The dashed part of the orbit path shows where the satellite is in the earth's shadow,  

DLR